WZZ8YK LIRF-LHBP

Flight info

Callsign WZZ8YK
Flight time 1h 18m
Altitude 38000
Route OKUNO DCT ATRUP DCT SAL/N0432F370 DCT KOPRY DCT ULZAK
Aircraft A320/M-SDE1E2E3FGIJ1J4RWXY/LB1

Departure

Time 2026-05-05 06:35
Airport Rome–Fiumicino Leonardo da Vinci International Airport (LIRF)

Arrival

Time 2026-05-05 07:53
Airport Budapest Liszt Ferenc International Airport (LHBP)
Time Latitude Longitude Altitude Speed Heading
2026-05-05 06:01 41.79703 12.24621 14 ft 0 kts 69°
2026-05-05 06:23 41.79701 12.24614 14 ft 2 kts 69°
2026-05-05 06:23 41.79694 12.24588 14 ft 3 kts 69°
2026-05-05 06:23 41.79688 12.24567 14 ft 1 kts 69°
2026-05-05 06:24 41.79687 12.24565 14 ft 0 kts 69°
2026-05-05 06:24 41.79688 12.24566 14 ft 0 kts 69°
2026-05-05 06:24 41.79683 12.24546 16 ft 2 kts 54°
2026-05-05 06:25 41.79670 12.24532 15 ft 2 kts 34°
2026-05-05 06:25 41.79656 12.24522 14 ft 2 kts
2026-05-05 06:25 41.79642 12.24524 14 ft 0 kts 339°
2026-05-05 06:28 41.79642 12.24523 14 ft 1 kts 339°
2026-05-05 06:28 41.79655 12.24517 14 ft 3 kts 339°
2026-05-05 06:28 41.79671 12.24509 15 ft 4 kts 339°
2026-05-05 06:29 41.79708 12.24491 14 ft 7 kts 339°
2026-05-05 06:29 41.79760 12.24464 14 ft 9 kts 339°
2026-05-05 06:29 41.79827 12.24431 14 ft 11 kts 339°
2026-05-05 06:29 41.79909 12.24393 14 ft 14 kts 340°
2026-05-05 06:30 41.79949 12.24290 14 ft 15 kts 258°
2026-05-05 06:30 41.79920 12.24149 14 ft 17 kts 263°
2026-05-05 06:30 41.79903 12.23986 15 ft 19 kts 248°
2026-05-05 06:30 41.79853 12.23812 16 ft 21 kts 249°
2026-05-05 06:31 41.79848 12.23680 16 ft 15 kts 321°
2026-05-05 06:31 41.79952 12.23636 16 ft 17 kts 342°
2026-05-05 06:31 41.80067 12.23589 18 ft 18 kts 343°
2026-05-05 06:31 41.80200 12.23534 15 ft 21 kts 342°
2026-05-05 06:32 41.80350 12.23471 17 ft 24 kts 343°
2026-05-05 06:32 41.80515 12.23402 15 ft 26 kts 342°
2026-05-05 06:32 41.80685 12.23330 16 ft 21 kts 342°
2026-05-05 06:32 41.80815 12.23274 15 ft 15 kts 332°
2026-05-05 06:33 41.80828 12.23163 14 ft 9 kts 253°
2026-05-05 06:33 41.80821 12.23132 14 ft 0 kts 253°
2026-05-05 06:33 41.80820 12.23128 14 ft 0 kts 252°
2026-05-05 06:33 41.80817 12.23115 16 ft 6 kts 252°
2026-05-05 06:34 41.80791 12.23009 14 ft 12 kts 252°
2026-05-05 06:34 41.80729 12.22981 14 ft 13 kts 162°
2026-05-05 06:34 41.80484 12.23085 16 ft 71 kts 162°
2026-05-05 06:34 41.79822 12.23363 16 ft 126 kts 162°
2026-05-05 06:35 41.78853 12.23780 183 ft 154 kts 159°
2026-05-05 06:35 41.77845 12.24198 941 ft 151 kts 159°
2026-05-05 06:35 41.76813 12.24591 1452 ft 162 kts 172°
2026-05-05 06:35 41.75644 12.24190 1736 ft 189 kts 200°
2026-05-05 06:36 41.74340 12.23524 2043 ft 213 kts 194°
2026-05-05 06:36 41.72809 12.22996 2603 ft 232 kts 192°
2026-05-05 06:36 41.71204 12.22506 3506 ft 240 kts 193°
2026-05-05 06:36 41.69563 12.22012 4631 ft 245 kts 195°
2026-05-05 06:37 41.67873 12.21501 5664 ft 252 kts 196°
2026-05-05 06:37 41.66142 12.20969 6594 ft 259 kts 196°
2026-05-05 06:37 41.64344 12.20409 7504 ft 265 kts 197°
2026-05-05 06:37 41.62535 12.19839 8430 ft 270 kts 196°
2026-05-05 06:38 41.60691 12.19256 9401 ft 275 kts 197°
2026-05-05 06:38 41.58818 12.18661 10311 ft 281 kts 197°
2026-05-05 06:38 41.56841 12.18026 10712 ft 304 kts 197°
2026-05-05 06:38 41.54697 12.17480 11173 ft 324 kts 186°
2026-05-05 06:39 41.52437 12.18000 11850 ft 340 kts 161°
2026-05-05 06:39 41.50468 12.19826 12524 ft 355 kts 135°
2026-05-05 06:39 41.49240 12.22729 13191 ft 368 kts 108°
2026-05-05 06:39 41.49052 12.26154 13846 ft 377 kts 83°
2026-05-05 06:40 41.49507 12.29611 14456 ft 381 kts 78°
2026-05-05 06:40 41.50115 12.33066 15149 ft 384 kts 76°
2026-05-05 06:40 41.51017 12.36426 15765 ft 387 kts 62°
2026-05-05 06:40 41.52495 12.39439 16377 ft 389 kts 49°
2026-05-05 06:41 41.54423 12.42036 17014 ft 389 kts 36°
2026-05-05 06:41 41.56684 12.44008 17598 ft 388 kts 23°
2026-05-05 06:41 41.59133 12.45556 18177 ft 391 kts 21°
2026-05-05 06:41 41.61610 12.47097 18707 ft 395 kts 21°
2026-05-05 06:42 41.64114 12.48646 19236 ft 398 kts 21°
2026-05-05 06:42 41.66637 12.50204 19773 ft 401 kts 21°
2026-05-05 06:42 41.69178 12.51774 20304 ft 404 kts 20°
2026-05-05 06:42 41.71743 12.53363 20853 ft 407 kts 20°
2026-05-05 06:43 41.74326 12.54965 21377 ft 411 kts 21°
2026-05-05 06:43 41.76929 12.56584 21863 ft 414 kts 21°
2026-05-05 06:43 41.79585 12.58256 22340 ft 419 kts 23°
2026-05-05 06:43 41.82091 12.60300 22810 ft 425 kts 32°
2026-05-05 06:44 41.84490 12.62562 23278 ft 429 kts 31°
2026-05-05 06:44 41.86973 12.64899 23743 ft 432 kts 31°
2026-05-05 06:44 41.89441 12.67218 24126 ft 435 kts 31°
2026-05-05 06:44 41.91929 12.69559 24522 ft 438 kts 32°
2026-05-05 06:45 41.94438 12.71924 24885 ft 442 kts 32°
2026-05-05 06:45 41.96962 12.74304 25257 ft 445 kts 32°
2026-05-05 06:45 41.99505 12.76706 25621 ft 449 kts 32°
2026-05-05 06:45 42.01973 12.79294 26037 ft 454 kts 39°
2026-05-05 06:46 42.04159 12.82393 26460 ft 460 kts 49°
2026-05-05 06:46 42.05986 12.85944 26843 ft 465 kts 58°
2026-05-05 06:46 42.07586 12.89751 27196 ft 469 kts 59°
2026-05-05 06:46 42.09191 12.93584 27559 ft 472 kts 59°
2026-05-05 06:47 42.10809 12.97454 27903 ft 475 kts 59°
2026-05-05 06:47 42.12408 13.01363 28230 ft 479 kts 60°
2026-05-05 06:47 42.13982 13.05339 28561 ft 482 kts 61°
2026-05-05 06:47 42.15535 13.09361 28909 ft 486 kts 62°
2026-05-05 06:48 42.17088 13.13427 29232 ft 489 kts 62°
2026-05-05 06:48 42.18648 13.17512 29619 ft 491 kts 62°
2026-05-05 06:48 42.20228 13.21620 29980 ft 494 kts 61°
2026-05-05 06:48 42.21844 13.25796 30326 ft 497 kts 61°
2026-05-05 06:49 42.23455 13.29937 30625 ft 500 kts 60°
2026-05-05 06:49 42.25080 13.34109 30924 ft 503 kts 60°
2026-05-05 06:49 42.26713 13.38299 31252 ft 505 kts 60°
2026-05-05 06:49 42.28341 13.42493 31672 ft 505 kts 60°
2026-05-05 06:50 42.29965 13.46699 32036 ft 505 kts 60°
2026-05-05 06:50 42.31583 13.50910 32447 ft 504 kts 60°
2026-05-05 06:50 42.33287 13.55020 32941 ft 500 kts 53°
2026-05-05 06:50 42.35347 13.58765 33399 ft 493 kts 44°
2026-05-05 06:51 42.37732 13.62044 33830 ft 486 kts 35°
2026-05-05 06:51 42.40385 13.64832 34253 ft 479 kts 28°
2026-05-05 06:51 42.43104 13.67418 34624 ft 479 kts 29°
2026-05-05 06:51 42.45826 13.70022 34971 ft 478 kts 29°
2026-05-05 06:52 42.48535 13.72629 35328 ft 477 kts 30°
2026-05-05 06:52 42.51227 13.75231 35714 ft 475 kts 30°
2026-05-05 06:52 42.53915 13.77830 36079 ft 474 kts 30°
2026-05-05 06:52 42.56594 13.80424 36463 ft 472 kts 30°
2026-05-05 06:53 42.59260 13.83008 36839 ft 470 kts 30°
2026-05-05 06:53 42.61955 13.85625 37125 ft 470 kts 31°
2026-05-05 06:53 42.64609 13.88200 37505 ft 467 kts 31°
2026-05-05 06:53 42.67243 13.90758 37868 ft 465 kts 31°
2026-05-05 06:54 42.69880 13.93318 38037 ft 466 kts 31°
2026-05-05 06:54 42.75161 13.98435 38044 ft 466 kts 31°
2026-05-05 06:55 42.80436 14.03575 38040 ft 467 kts 31°
2026-05-05 06:55 42.85713 14.08731 38033 ft 467 kts 31°
2026-05-05 06:56 42.90990 14.13905 38044 ft 467 kts 31°
2026-05-05 06:56 42.96268 14.19084 38061 ft 468 kts 31°
2026-05-05 06:57 43.01552 14.24261 38069 ft 467 kts 31°
2026-05-05 06:57 43.05968 14.28612 38070 ft 466 kts 32°
2026-05-05 06:58 43.11217 14.33803 38069 ft 465 kts 32°
2026-05-05 06:58 43.16458 14.38983 38075 ft 464 kts 32°
2026-05-05 06:59 43.21682 14.44158 38068 ft 463 kts 32°
2026-05-05 06:59 43.26900 14.49337 38072 ft 462 kts 32°
2026-05-05 07:00 43.32104 14.54517 38070 ft 462 kts 33°
2026-05-05 07:00 43.37294 14.59696 38070 ft 461 kts 33°
2026-05-05 07:01 43.42481 14.64883 38077 ft 461 kts 33°
2026-05-05 07:01 43.47654 14.70075 38090 ft 460 kts 33°
2026-05-05 07:02 43.52854 14.75295 38080 ft 459 kts 33°
2026-05-05 07:02 43.58015 14.80481 38077 ft 459 kts 33°
2026-05-05 07:03 43.63167 14.85675 38074 ft 459 kts 33°
2026-05-05 07:03 43.68315 14.90884 38078 ft 458 kts 33°
2026-05-05 07:04 43.73454 14.96091 38072 ft 458 kts 33°
2026-05-05 07:04 43.78583 15.01302 38074 ft 457 kts 33°
2026-05-05 07:05 43.83711 15.06511 38078 ft 457 kts 33°
2026-05-05 07:05 43.88831 15.11735 38088 ft 457 kts 33°
2026-05-05 07:06 43.93979 15.16885 38090 ft 455 kts 28°
2026-05-05 07:06 43.99519 15.21075 38103 ft 454 kts 25°
2026-05-05 07:07 44.05083 15.25223 38076 ft 454 kts 25°
2026-05-05 07:07 44.10648 15.29390 38073 ft 454 kts 25°
2026-05-05 07:08 44.16207 15.33570 38086 ft 455 kts 25°
2026-05-05 07:08 44.21777 15.37760 38074 ft 455 kts 25°
2026-05-05 07:09 44.27358 15.41955 38076 ft 456 kts 25°
2026-05-05 07:09 44.32978 15.46191 38100 ft 456 kts 25°
2026-05-05 07:10 44.38566 15.50420 38091 ft 456 kts 25°
2026-05-05 07:10 44.44148 15.54654 38090 ft 456 kts 25°
2026-05-05 07:11 44.49724 15.58894 38093 ft 456 kts 25°
2026-05-05 07:11 44.55284 15.63136 38101 ft 455 kts 25°
2026-05-05 07:12 44.60843 15.67368 38089 ft 454 kts 25°
2026-05-05 07:12 44.66398 15.71620 38083 ft 455 kts 25°
2026-05-05 07:13 44.71942 15.75876 38083 ft 455 kts 25°
2026-05-05 07:13 44.77499 15.80147 38071 ft 455 kts 25°
2026-05-05 07:14 44.83056 15.84413 38066 ft 455 kts 25°
2026-05-05 07:14 44.88616 15.88703 38073 ft 455 kts 25°
2026-05-05 07:15 44.94172 15.92998 38066 ft 455 kts 26°
2026-05-05 07:15 44.99724 15.97315 38063 ft 455 kts 26°
2026-05-05 07:16 45.05309 16.01661 38072 ft 455 kts 26°
2026-05-05 07:16 45.10858 16.05978 38068 ft 455 kts 25°
2026-05-05 07:17 45.16404 16.10293 38062 ft 454 kts 26°
2026-05-05 07:17 45.21940 16.14626 38071 ft 454 kts 26°
2026-05-05 07:18 45.27465 16.18964 38063 ft 454 kts 26°
2026-05-05 07:18 45.32996 16.23309 38056 ft 454 kts 26°
2026-05-05 07:19 45.38524 16.27661 38054 ft 454 kts 26°
2026-05-05 07:19 45.44043 16.32011 38062 ft 454 kts 26°
2026-05-05 07:20 45.49567 16.36377 38049 ft 454 kts 26°
2026-05-05 07:20 45.55085 16.40758 38040 ft 454 kts 26°
2026-05-05 07:21 45.60599 16.45134 38050 ft 454 kts 26°
2026-05-05 07:21 45.66113 16.49525 38050 ft 454 kts 26°
2026-05-05 07:22 45.71624 16.53928 38053 ft 454 kts 26°
2026-05-05 07:22 45.77133 16.58335 38047 ft 454 kts 26°
2026-05-05 07:23 45.82641 16.62748 38050 ft 453 kts 26°
2026-05-05 07:23 45.88181 16.67202 38042 ft 453 kts 27°
2026-05-05 07:24 45.93680 16.71637 38033 ft 453 kts 26°
2026-05-05 07:24 45.99178 16.76071 38032 ft 453 kts 27°
2026-05-05 07:25 46.04676 16.80515 38035 ft 453 kts 27°
2026-05-05 07:25 46.10175 16.84978 38032 ft 453 kts 27°
2026-05-05 07:26 46.15667 16.89451 38032 ft 453 kts 27°
2026-05-05 07:26 46.21141 16.93984 38024 ft 455 kts 32°
2026-05-05 07:27 46.25828 17.00117 38029 ft 459 kts 50°
2026-05-05 07:27 46.29516 17.07646 38030 ft 459 kts 54°
2026-05-05 07:28 46.33158 17.15208 38039 ft 457 kts 54°
2026-05-05 07:28 46.36779 17.22750 38034 ft 456 kts 54°
2026-05-05 07:28 46.38583 17.26521 37880 ft 456 kts 54°
2026-05-05 07:29 46.40409 17.30338 36807 ft 466 kts 54°
2026-05-05 07:29 46.42265 17.34221 36041 ft 470 kts 54°
2026-05-05 07:29 46.43518 17.36849 35631 ft 469 kts 54°
2026-05-05 07:29 46.45362 17.40726 35192 ft 465 kts 54°
2026-05-05 07:30 46.47192 17.44579 34676 ft 463 kts 54°
2026-05-05 07:30 46.50824 17.52240 33626 ft 458 kts 54°
2026-05-05 07:30 46.52620 17.56034 33117 ft 454 kts 55°
2026-05-05 07:31 46.54403 17.59803 32608 ft 451 kts 55°
2026-05-05 07:31 46.56171 17.63544 32096 ft 448 kts 55°
2026-05-05 07:31 46.57928 17.67262 31597 ft 444 kts 55°
2026-05-05 07:31 46.59670 17.70952 31097 ft 441 kts 55°
2026-05-05 07:32 46.61396 17.74616 30620 ft 437 kts 55°
2026-05-05 07:32 46.63106 17.78254 30144 ft 434 kts 56°
2026-05-05 07:32 46.64803 17.81873 29633 ft 430 kts 56°
2026-05-05 07:32 46.66476 17.85446 29172 ft 425 kts 56°
2026-05-05 07:33 46.68129 17.88988 28732 ft 420 kts 56°
2026-05-05 07:33 46.69787 17.92542 28289 ft 416 kts 56°
2026-05-05 07:33 46.71384 17.95960 27865 ft 412 kts 56°
2026-05-05 07:33 46.72991 17.99394 27438 ft 408 kts 56°
2026-05-05 07:34 46.74601 18.02842 27024 ft 405 kts 56°
2026-05-05 07:34 46.76179 18.06231 26599 ft 402 kts 56°
2026-05-05 07:34 46.77748 18.09602 26187 ft 400 kts 56°
2026-05-05 07:34 46.79307 18.12953 25749 ft 398 kts 56°
2026-05-05 07:35 46.80855 18.16286 25308 ft 396 kts 56°
2026-05-05 07:35 46.82391 18.19601 24881 ft 394 kts 56°
2026-05-05 07:35 46.83921 18.22917 24435 ft 393 kts 56°
2026-05-05 07:35 46.85440 18.26215 23988 ft 391 kts 56°
2026-05-05 07:36 46.86955 18.29510 23527 ft 390 kts 56°
2026-05-05 07:36 46.88467 18.32794 23029 ft 388 kts 56°
2026-05-05 07:36 46.89969 18.36057 22570 ft 385 kts 56°
2026-05-05 07:36 46.91454 18.39289 22109 ft 382 kts 56°
2026-05-05 07:37 46.92925 18.42497 21656 ft 379 kts 57°
2026-05-05 07:37 46.94385 18.45690 21203 ft 376 kts 57°
2026-05-05 07:37 46.95835 18.48857 20757 ft 373 kts 57°
2026-05-05 07:37 46.97275 18.52006 20295 ft 371 kts 57°
2026-05-05 07:38 46.98775 18.55063 19860 ft 369 kts 50°
2026-05-05 07:38 47.00626 18.57641 19434 ft 367 kts 37°
2026-05-05 07:38 47.02770 18.59658 19002 ft 365 kts 31°
2026-05-05 07:38 47.04945 18.61569 18571 ft 363 kts 31°
2026-05-05 07:39 47.07106 18.63480 18117 ft 362 kts 32°
2026-05-05 07:39 47.09254 18.65391 17671 ft 359 kts 32°
2026-05-05 07:39 47.11382 18.67291 17239 ft 357 kts 32°
2026-05-05 07:39 47.13522 18.69202 16824 ft 354 kts 32°
2026-05-05 07:40 47.15622 18.71075 16402 ft 352 kts 32°
2026-05-05 07:40 47.17674 18.73009 15983 ft 350 kts 39°
2026-05-05 07:40 47.19422 18.75458 15579 ft 346 kts 52°
2026-05-05 07:40 47.20781 18.78351 15177 ft 343 kts 60°
2026-05-05 07:41 47.22041 18.81319 14777 ft 342 kts 60°
2026-05-05 07:41 47.23299 18.84281 14387 ft 341 kts 60°
2026-05-05 07:41 47.24552 18.87228 13990 ft 340 kts 60°
2026-05-05 07:41 47.25809 18.90181 13569 ft 340 kts 60°
2026-05-05 07:42 47.27063 18.93127 13155 ft 338 kts 60°
2026-05-05 07:42 47.28307 18.96052 12750 ft 337 kts 60°
2026-05-05 07:42 47.29540 18.98954 12528 ft 329 kts 60°
2026-05-05 07:42 47.30842 19.01669 12321 ft 323 kts 50°
2026-05-05 07:43 47.32457 19.03966 11943 ft 321 kts 44°
2026-05-05 07:43 47.34107 19.06165 11365 ft 319 kts 44°
2026-05-05 07:43 47.35715 19.08309 11126 ft 302 kts 43°
2026-05-05 07:43 47.37432 19.09977 10798 ft 294 kts 18°
2026-05-05 07:44 47.39423 19.10330 10722 ft 289 kts 351°
2026-05-05 07:44 47.41314 19.09360 10274 ft 290 kts 320°
2026-05-05 07:44 47.42718 19.07326 10161 ft 278 kts 308°
2026-05-05 07:44 47.43995 19.05243 10039 ft 262 kts 307°
2026-05-05 07:45 47.45189 19.03309 9875 ft 248 kts 307°
2026-05-05 07:45 47.46343 19.01436 9395 ft 248 kts 307°
2026-05-05 07:45 47.47509 18.99534 8883 ft 249 kts 307°
2026-05-05 07:45 47.48662 18.97652 8506 ft 244 kts 307°
2026-05-05 07:46 47.49785 18.95827 8163 ft 237 kts 307°
2026-05-05 07:46 47.50891 18.94024 7693 ft 237 kts 306°
2026-05-05 07:46 47.52007 18.92238 7222 ft 238 kts 311°
2026-05-05 07:46 47.53503 18.90983 6524 ft 260 kts 343°
2026-05-05 07:47 47.55337 18.90949 5812 ft 272 kts 15°
2026-05-05 07:47 47.56973 18.92298 5278 ft 268 kts 45°
2026-05-05 07:47 47.58307 18.94131 5080 ft 257 kts 49°
2026-05-05 07:47 47.59167 18.96288 4927 ft 232 kts 86°
2026-05-05 07:48 47.59086 18.98525 4718 ft 211 kts 118°
2026-05-05 07:48 47.58286 19.00285 4351 ft 206 kts 138°
2026-05-05 07:48 47.57311 19.01856 4047 ft 208 kts 138°
2026-05-05 07:48 47.56335 19.03437 3778 ft 207 kts 138°
2026-05-05 07:49 47.55366 19.05015 3493 ft 207 kts 137°
2026-05-05 07:49 47.54383 19.06617 3222 ft 208 kts 137°
2026-05-05 07:49 47.53406 19.08207 2944 ft 210 kts 137°
2026-05-05 07:49 47.52425 19.09806 2683 ft 206 kts 138°
2026-05-05 07:50 47.51489 19.11334 2417 ft 194 kts 138°
2026-05-05 07:50 47.50612 19.12761 2142 ft 181 kts 137°
2026-05-05 07:50 47.49794 19.14089 1903 ft 168 kts 136°
2026-05-05 07:50 47.49041 19.15312 1712 ft 153 kts 136°
2026-05-05 07:51 47.48356 19.16426 1518 ft 140 kts 136°
2026-05-05 07:51 47.47710 19.17472 1323 ft 136 kts 136°
2026-05-05 07:51 47.47069 19.18512 1122 ft 135 kts 136°
2026-05-05 07:51 47.46421 19.19567 963 ft 142 kts 135°
2026-05-05 07:52 47.45759 19.20655 754 ft 141 kts 134°
2026-05-05 07:52 47.45105 19.21707 584 ft 138 kts 136°
2026-05-05 07:52 47.44457 19.22743 452 ft 127 kts 134°
2026-05-05 07:52 47.44006 19.23467 455 ft 60 kts 132°
2026-05-05 07:53 47.43763 19.23881 455 ft 51 kts 125°
2026-05-05 07:53 47.43667 19.24287 456 ft 31 kts 102°
2026-05-05 07:53 47.43595 19.24539 456 ft 25 kts 122°
2026-05-05 07:53 47.43479 19.24736 457 ft 25 kts 134°
2026-05-05 07:54 47.43358 19.24927 457 ft 16 kts 133°
2026-05-05 07:54 47.43305 19.25077 457 ft 18 kts 96°
2026-05-05 07:54 47.43382 19.25225 457 ft 20 kts 41°
2026-05-05 07:54 47.43488 19.25367 457 ft 22 kts 42°
2026-05-05 07:55 47.43610 19.25532 457 ft 25 kts 43°
2026-05-05 07:55 47.43740 19.25707 457 ft 25 kts 42°
2026-05-05 07:55 47.43803 19.25857 455 ft 17 kts 111°
2026-05-05 07:55 47.43721 19.25995 456 ft 19 kts 133°
2026-05-05 07:56 47.43676 19.26184 457 ft 21 kts 88°
2026-05-05 07:56 47.43646 19.26387 458 ft 16 kts 132°
2026-05-05 07:56 47.43595 19.26463 458 ft 9 kts 133°
2026-05-05 07:56 47.43545 19.26445 456 ft 7 kts 223°
2026-05-05 07:57 47.43534 19.26430 457 ft 0 kts 223°